SPNTA EPPO-EDDB

Flight info

Callsign SPNTA
Flight time 0h 48m
Altitude 16000
Route ERNOX DCT GOVEN T205 NUKRO
Aircraft C208/L-SDFGR/C

Departure

Time 2026-05-01 08:56
Airport Poznań-Ławica Airport (EPPO)

Arrival

Time 2026-05-01 09:44
Airport Berlin Brandenburg Airport (EDDB)
Time Latitude Longitude Altitude Speed Heading
2026-05-01 08:42 52.41515 16.83742 287 ft 0 kts 97°
2026-05-01 08:43 52.41516 16.83742 287 ft 0 kts 97°
2026-05-01 08:45 52.41516 16.83741 287 ft 0 kts 97°
2026-05-01 08:49 52.41516 16.83740 287 ft 0 kts 97°
2026-05-01 08:53 52.41514 16.83762 287 ft 5 kts 94°
2026-05-01 08:53 52.41549 16.83786 287 ft 7 kts 15°
2026-05-01 08:53 52.41569 16.83883 287 ft 8 kts 50°
2026-05-01 08:53 52.41623 16.83975 287 ft 13 kts 35°
2026-05-01 08:54 52.41707 16.84023 287 ft 12 kts 19°
2026-05-01 08:54 52.41780 16.84071 287 ft 10 kts 22°
2026-05-01 08:54 52.41828 16.84047 287 ft 9 kts 307°
2026-05-01 08:54 52.41838 16.84010 288 ft 0 kts 290°
2026-05-01 08:55 52.41872 16.83838 290 ft 41 kts 288°
2026-05-01 08:55 52.42007 16.83127 322 ft 83 kts 288°
2026-05-01 08:55 52.42114 16.82510 449 ft 88 kts 288°
2026-05-01 08:55 52.42304 16.81540 691 ft 89 kts 289°
2026-05-01 08:56 52.42521 16.80470 771 ft 115 kts 291°
2026-05-01 08:56 52.42883 16.78756 1115 ft 121 kts 290°
2026-05-01 08:56 52.43161 16.77432 1405 ft 125 kts 293°
2026-05-01 08:56 52.43335 16.76513 1661 ft 125 kts 289°
2026-05-01 08:57 52.43507 16.75120 2103 ft 126 kts 274°
2026-05-01 08:57 52.43140 16.73734 2379 ft 140 kts 230°
2026-05-01 08:57 52.42483 16.72594 2720 ft 137 kts 235°
2026-05-01 08:57 52.41886 16.71426 3161 ft 136 kts 232°
2026-05-01 08:58 52.41233 16.70256 3478 ft 139 kts 231°
2026-05-01 08:58 52.40560 16.69067 3806 ft 143 kts 232°
2026-05-01 08:58 52.39895 16.67872 4122 ft 142 kts 232°
2026-05-01 08:58 52.39211 16.66633 4413 ft 147 kts 232°
2026-05-01 08:59 52.38515 16.65387 4728 ft 150 kts 232°
2026-05-01 08:59 52.37814 16.64132 5039 ft 148 kts 232°
2026-05-01 08:59 52.37113 16.62889 5344 ft 147 kts 232°
2026-05-01 08:59 52.36422 16.61649 5640 ft 148 kts 232°
2026-05-01 09:00 52.35718 16.60395 5940 ft 151 kts 231°
2026-05-01 09:00 52.35007 16.59120 6237 ft 151 kts 232°
2026-05-01 09:00 52.34305 16.57867 6546 ft 151 kts 230°
2026-05-01 09:00 52.33595 16.56609 6844 ft 150 kts 231°
2026-05-01 09:01 52.32885 16.55342 7135 ft 151 kts 231°
2026-05-01 09:01 52.32180 16.54095 7420 ft 151 kts 230°
2026-05-01 09:01 52.31475 16.52829 7708 ft 149 kts 230°
2026-05-01 09:01 52.30770 16.51577 8011 ft 150 kts 230°
2026-05-01 09:02 52.30061 16.50317 8301 ft 151 kts 230°
2026-05-01 09:02 52.29354 16.49057 8595 ft 150 kts 230°
2026-05-01 09:02 52.28647 16.47802 8893 ft 150 kts 230°
2026-05-01 09:02 52.27942 16.46552 9204 ft 149 kts 230°
2026-05-01 09:03 52.27242 16.45304 9506 ft 148 kts 229°
2026-05-01 09:03 52.26542 16.44078 9820 ft 148 kts 228°
2026-05-01 09:03 52.25853 16.42852 10125 ft 144 kts 230°
2026-05-01 09:03 52.25185 16.41658 10380 ft 146 kts 229°
2026-05-01 09:04 52.24483 16.40413 10586 ft 152 kts 229°
2026-05-01 09:04 52.23750 16.39115 10783 ft 158 kts 228°
2026-05-01 09:04 52.22992 16.37771 10996 ft 163 kts 228°
2026-05-01 09:04 52.22213 16.36398 11202 ft 166 kts 228°
2026-05-01 09:05 52.21431 16.35013 11402 ft 170 kts 228°
2026-05-01 09:05 52.20622 16.33580 11607 ft 173 kts 228°
2026-05-01 09:05 52.19800 16.32129 11810 ft 175 kts 228°
2026-05-01 09:05 52.18969 16.30667 12024 ft 177 kts 227°
2026-05-01 09:06 52.18136 16.29201 12251 ft 175 kts 227°
2026-05-01 09:06 52.17307 16.27739 12479 ft 176 kts 227°
2026-05-01 09:06 52.16475 16.26270 12714 ft 176 kts 227°
2026-05-01 09:06 52.15640 16.24801 12931 ft 176 kts 227°
2026-05-01 09:07 52.14807 16.23339 13165 ft 177 kts 227°
2026-05-01 09:07 52.13969 16.21867 13397 ft 177 kts 227°
2026-05-01 09:07 52.13145 16.20417 13629 ft 177 kts 227°
2026-05-01 09:07 52.12306 16.18944 13862 ft 177 kts 226°
2026-05-01 09:08 52.11467 16.17471 14101 ft 177 kts 226°
2026-05-01 09:08 52.10624 16.15994 14321 ft 178 kts 226°
2026-05-01 09:08 52.09790 16.14531 14530 ft 178 kts 226°
2026-05-01 09:08 52.08948 16.13054 14743 ft 177 kts 226°
2026-05-01 09:09 52.08105 16.11578 14959 ft 178 kts 226°
2026-05-01 09:09 52.07277 16.10131 15152 ft 180 kts 226°
2026-05-01 09:09 52.06429 16.08650 15348 ft 182 kts 226°
2026-05-01 09:09 52.05567 16.07140 15546 ft 182 kts 226°
2026-05-01 09:10 52.04709 16.05638 15741 ft 181 kts 226°
2026-05-01 09:10 52.03852 16.04141 15939 ft 180 kts 226°
2026-05-01 09:10 52.03057 16.02567 16124 ft 179 kts 245°
2026-05-01 09:10 52.02722 16.00666 16309 ft 172 kts 274°
2026-05-01 09:11 52.02763 15.98754 16367 ft 177 kts 283°
2026-05-01 09:11 52.02832 15.96695 16377 ft 188 kts 281°
2026-05-01 09:11 52.02893 15.94521 16375 ft 197 kts 281°
2026-05-01 09:11 52.02958 15.92263 16377 ft 203 kts 281°
2026-05-01 09:12 52.03026 15.89932 16375 ft 209 kts 280°
2026-05-01 09:12 52.03094 15.87559 16376 ft 212 kts 280°
2026-05-01 09:12 52.03164 15.85144 16373 ft 215 kts 280°
2026-05-01 09:12 52.03234 15.82706 16376 ft 217 kts 280°
2026-05-01 09:13 52.03305 15.80252 16373 ft 218 kts 279°
2026-05-01 09:13 52.03373 15.77817 16370 ft 218 kts 279°
2026-05-01 09:13 52.03442 15.75350 16373 ft 219 kts 279°
2026-05-01 09:13 52.03512 15.72877 16374 ft 219 kts 279°
2026-05-01 09:14 52.03581 15.70396 16373 ft 219 kts 279°
2026-05-01 09:14 52.03648 15.67918 16372 ft 220 kts 279°
2026-05-01 09:14 52.03716 15.65471 16376 ft 220 kts 279°
2026-05-01 09:14 52.03785 15.62981 16376 ft 220 kts 279°
2026-05-01 09:15 52.03852 15.60498 16373 ft 220 kts 279°
2026-05-01 09:15 52.03917 15.58006 16372 ft 220 kts 279°
2026-05-01 09:15 52.03983 15.55519 16369 ft 220 kts 279°
2026-05-01 09:15 52.04049 15.53037 16365 ft 220 kts 279°
2026-05-01 09:16 52.04113 15.50561 16370 ft 219 kts 279°
2026-05-01 09:16 52.04177 15.48118 16369 ft 219 kts 279°
2026-05-01 09:16 52.04241 15.45638 16364 ft 219 kts 279°
2026-05-01 09:17 52.04366 15.40681 16366 ft 220 kts 278°
2026-05-01 09:17 52.04428 15.38197 16366 ft 220 kts 278°
2026-05-01 09:17 52.04552 15.33225 16367 ft 220 kts 278°
2026-05-01 09:18 52.04611 15.30768 16364 ft 220 kts 278°
2026-05-01 09:18 52.04733 15.25793 16373 ft 220 kts 278°
2026-05-01 09:19 52.04851 15.20805 16372 ft 221 kts 278°
2026-05-01 09:19 52.04907 15.18313 16370 ft 220 kts 278°
2026-05-01 09:19 52.04965 15.15861 16374 ft 220 kts 278°
2026-05-01 09:20 52.05077 15.10909 16372 ft 219 kts 278°
2026-05-01 09:20 52.05189 15.05980 16375 ft 218 kts 278°
2026-05-01 09:21 52.05301 15.01038 16372 ft 219 kts 278°
2026-05-01 09:21 52.05353 14.98561 16377 ft 219 kts 278°
2026-05-01 09:21 52.05457 14.93607 16373 ft 219 kts 277°
2026-05-01 09:22 52.05562 14.88666 16378 ft 219 kts 277°
2026-05-01 09:22 52.05663 14.83750 16378 ft 219 kts 277°
2026-05-01 09:23 52.05713 14.81279 16379 ft 219 kts 277°
2026-05-01 09:23 52.05811 14.76339 16375 ft 218 kts 277°
2026-05-01 09:24 52.05694 14.71367 16376 ft 220 kts 271°
2026-05-01 09:24 52.05622 14.68907 16378 ft 220 kts 272°
2026-05-01 09:24 52.05471 14.63917 16378 ft 220 kts 271°
2026-05-01 09:25 52.05314 14.58930 16374 ft 220 kts 271°
2026-05-01 09:25 52.05155 14.53908 15907 ft 227 kts 271°
2026-05-01 09:26 52.05069 14.51360 15483 ft 224 kts 271°
2026-05-01 09:26 52.04903 14.46338 14656 ft 221 kts 270°
2026-05-01 09:26 52.04944 14.43864 14219 ft 214 kts 287°
2026-05-01 09:27 52.06307 14.39943 13293 ft 191 kts 326°
2026-05-01 09:27 52.07335 14.38716 12979 ft 181 kts 334°
2026-05-01 09:27 52.08404 14.37530 12689 ft 190 kts 333°
2026-05-01 09:28 52.09511 14.36275 12447 ft 198 kts 332°
2026-05-01 09:28 52.10656 14.34974 12210 ft 203 kts 332°
2026-05-01 09:28 52.11823 14.33647 11969 ft 205 kts 332°
2026-05-01 09:28 52.12977 14.32333 11719 ft 197 kts 332°
2026-05-01 09:29 52.15153 14.29859 11232 ft 187 kts 332°
2026-05-01 09:29 52.16212 14.28657 11012 ft 185 kts 331°
2026-05-01 09:30 52.18346 14.26235 10575 ft 187 kts 331°
2026-05-01 09:30 52.19417 14.25015 10359 ft 188 kts 330°
2026-05-01 09:30 52.21542 14.22590 9897 ft 187 kts 330°
2026-05-01 09:31 52.22613 14.21372 9662 ft 187 kts 330°
2026-05-01 09:31 52.23682 14.20151 9427 ft 187 kts 330°
2026-05-01 09:31 52.25814 14.17717 8965 ft 186 kts 330°
2026-05-01 09:32 52.26870 14.16508 8739 ft 185 kts 330°
2026-05-01 09:32 52.28970 14.14105 8289 ft 187 kts 329°
2026-05-01 09:32 52.30025 14.12893 8057 ft 183 kts 329°
2026-05-01 09:33 52.31067 14.11695 7834 ft 182 kts 329°
2026-05-01 09:33 52.32101 14.10517 7608 ft 180 kts 329°
2026-05-01 09:33 52.34146 14.08172 7169 ft 180 kts 329°
2026-05-01 09:34 52.35171 14.06987 6956 ft 180 kts 329°
2026-05-01 09:34 52.36194 14.05807 6731 ft 180 kts 328°
2026-05-01 09:34 52.38215 14.03481 6356 ft 176 kts 328°
2026-05-01 09:35 52.39208 14.02339 6168 ft 174 kts 328°
2026-05-01 09:35 52.41169 14.00084 5813 ft 172 kts 328°
2026-05-01 09:35 52.42146 13.98957 5641 ft 171 kts 328°
2026-05-01 09:36 52.43121 13.97831 5466 ft 171 kts 328°
2026-05-01 09:36 52.44095 13.96711 5289 ft 171 kts 327°
2026-05-01 09:36 52.45073 13.95590 5133 ft 175 kts 328°
2026-05-01 09:36 52.46032 13.94267 4945 ft 185 kts 309°
2026-05-01 09:37 52.46564 13.92368 4776 ft 184 kts 284°
2026-05-01 09:37 52.46145 13.88415 4400 ft 177 kts 248°
2026-05-01 09:37 52.45710 13.86595 4234 ft 176 kts 250°
2026-05-01 09:38 52.44885 13.83015 3928 ft 173 kts 250°
2026-05-01 09:38 52.44542 13.81520 3927 ft 168 kts 250°
2026-05-01 09:38 52.44113 13.79647 3666 ft 180 kts 250°
2026-05-01 09:39 52.43261 13.75957 3174 ft 166 kts 250°
2026-05-01 09:39 52.42845 13.74209 2945 ft 162 kts 251°
2026-05-01 09:39 52.42440 13.72504 2741 ft 159 kts 249°
2026-05-01 09:40 52.42050 13.70845 2522 ft 156 kts 252°
2026-05-01 09:40 52.41305 13.67712 2142 ft 140 kts 251°
2026-05-01 09:40 52.40954 13.66206 1925 ft 144 kts 252°
2026-05-01 09:41 52.40593 13.64671 1733 ft 144 kts 250°
2026-05-01 09:41 52.39877 13.61653 1354 ft 142 kts 250°
2026-05-01 09:41 52.39524 13.60145 1167 ft 142 kts 250°
2026-05-01 09:42 52.39153 13.58648 895 ft 143 kts 249°
2026-05-01 09:42 52.38825 13.57149 728 ft 141 kts 252°
2026-05-01 09:42 52.38190 13.54481 460 ft 98 kts 254°
2026-05-01 09:43 52.37767 13.52728 207 ft 74 kts 253°
2026-05-01 09:43 52.37611 13.52037 158 ft 57 kts 250°
2026-05-01 09:43 52.37473 13.51460 158 ft 53 kts 249°
2026-05-01 09:44 52.37284 13.50656 154 ft 43 kts 251°
2026-05-01 09:44 52.37187 13.50356 155 ft 27 kts 230°
2026-05-01 09:44 52.37053 13.50157 152 ft 19 kts 219°
2026-05-01 09:45 52.36980 13.50071 151 ft 10 kts 190°
2026-05-01 09:45 52.36962 13.50311 152 ft 24 kts 66°
2026-05-01 09:45 52.37035 13.50618 155 ft 32 kts 66°
2026-05-01 09:46 52.37116 13.50951 158 ft 30 kts 68°
2026-05-01 09:46 52.37198 13.51313 158 ft 36 kts 70°
2026-05-01 09:46 52.37271 13.51613 158 ft 21 kts 67°
2026-05-01 09:46 52.37335 13.51875 158 ft 24 kts 70°
2026-05-01 09:47 52.37318 13.52048 157 ft 14 kts 158°
2026-05-01 09:47 52.37230 13.52108 159 ft 14 kts 154°
2026-05-01 09:47 52.37163 13.52146 159 ft 8 kts 245°
2026-05-01 09:47 52.37143 13.52047 159 ft 6 kts 284°
2026-05-01 09:48 52.37172 13.52066 159 ft 3 kts 133°
2026-05-01 09:48 52.37171 13.52067 159 ft 0 kts 137°
2026-05-01 09:49 52.37171 13.52066 159 ft 0 kts 137°
2026-05-01 09:49 52.37172 13.52066 159 ft 0 kts 137°